Regional Weather Roundup
Issued by NWS

Home | Current Version | Previous Version | Graphics & Text | Print | Product List | Glossary On
Versions: 1 2 3 4 5 6 7 8 9 10 11 12 13 14 15 16 17 18 19 20 21 22 23 24 25 26 27 28 29 30 31 32 33 34 35 36 37 38 39 40 41 42 43 44 45 46 47 48 49 50
000
ASUS43 KIND 211909
RWRIN

WEATHER ROUNDUP FOR INDIANA
NATIONAL WEATHER SERVICE INDIANAPOLIS IN
200 PM EST FRI NOV 21 2014

NOTE: "FAIR" INDICATES FEW OR NO CLOUDS BELOW 12,000 FEET WITH NO
SIGNIFICANT WEATHER AND/OR OBSTRUCTIONS TO VISIBILITY.

* - STATION DOES NOT REPORT WEATHER SUCH AS PRECIPITATION OR FOG.

+ - STATION NOT QUALITY CONTROLLED BY THE NATIONAL WEATHER SERVICE.
    USE DATA WITH CAUTION...ESPECIALLY DEWPOINT AND RELATIVE
    HUMIDITY OBSERVATIONS.

INZ001>003-010>013-019-020-212000-
NORTHWEST INDIANA

CITY           SKY/WX    TMP DP  RH WIND       PRES   REMARKS
GARY /AIRPORT/ SUNNY     34   7  32 S9          N/A  WCI  26
KNOX *+        SUNNY     31   8  38 SE10      30.42F WCI  23
LA PORTE +     SUNNY     33  11  39 S9G16     30.41F WCI  25
MICHIGAN CITY+ SUNNY     32   5  32 S7        30.41F WCI  26
MONTICELLO +   SUNNY     30  13  49 S9        30.43F WCI  21
RENSSELAER +   SUNNY     32  10  40 SE12      30.42F WCI  23
VALPARAISO     SUNNY     32   7  35 S13G18    30.41F WCI  22

$$

LMZ046-743>745-212000-
SOUTHERN LAKE MICHIGAN

STATION/POSITION TIME  TEMP WIND        PRES
                       AIR  DIR/SP/G
                 (UTC) (F)  (DEG/KT/KT) (MB)
MICHIGAN CITY    1900   29  140/ 10/ 12   N/A

$$

INZ004-005-014>016-021>024-212000-
NORTH CENTRAL INDIANA

CITY           SKY/WX    TMP DP  RH WIND       PRES   REMARKS
ELKHART        SUNNY     28  10  47 S7        30.43F WCI  21
GOSHEN         SUNNY     30  13  49 S9        30.43F WCI  22
LOGANSPORT +   SUNNY     30  12  47 S9        30.45F WCI  22
PERU/GRISSOM   SUNNY     28  14  54 SE10      30.43F WCI  19
ROCHESTER +    SUNNY     32  14  47 SE7       30.44F WCI  26
SOUTH BEND     SUNNY     29  12  49 S8        30.42F WCI  21
WARSAW +       SUNNY     30  12  47 S7        30.44F WCI  23

$$

INZ006>009-017-018-025>027-212000-
NORTHEAST INDIANA

CITY           SKY/WX    TMP DP  RH WIND       PRES   REMARKS
ANGOLA *+      SUNNY     27  10  50 SW6       30.42F WCI  20
AUBURN +       SUNNY     30  12  47 S6        30.45F WCI  24
FORT WAYNE     SUNNY     27  13  55 SE6       30.47F WCI  20
HUNTINGTON +   SUNNY     28  12  52 S7        30.45F WCI  20

$$

INZ028-029-035-036-043>045-051>053-212000-
WEST CENTRAL INDIANA

CITY           SKY/WX    TMP DP  RH WIND       PRES   REMARKS
CRAWFORDSVL +  SUNNY     30  12  47 SE10      30.43  WCI  21
GREENCASTLE +  SUNNY     32  12  43 SE8       30.43F WCI  25
LAFAYETTE      SUNNY     30  11  45 SE7       30.43F WCI  23
TERRE HAUTE    SUNNY     34  11  38 S6        30.44F WCI  29

$$

INZ030>032-037>040-046>048-054>057-064-065-212000-
CENTRAL INDIANA

CITY           SKY/WX    TMP DP  RH WIND       PRES   REMARKS
CP ATTERBURY + SUNNY     34   9  35 SE8       30.46F WCI  27
COLUMBUS       SUNNY     32   9  37 SE8       30.47F WCI  25
FRANKFORT +    SUNNY     30  15  53 E9        30.44F WCI  22
GREENWOOD *+   SUNNY     32   7  34 SE9       30.45  WCI  24
INDIANAPOLIS   MOSUNNY   31   9  39 SE10      30.43F WCI  22
-EAGLE CREEK   SUNNY     31  10  41 SE9       30.43F WCI  23
KOKOMO *+      SUNNY     28  12  50 SE12      30.44F WCI  18
MARION +       SUNNY     28  10  48 SE9       30.46F WCI  19
MT COMFORT *+  SUNNY     32   0  25 SE8       30.45F WCI  25
SHELBYVILLE    SUNNY     33  12  41 SE9       30.45F WCI  25
ZIONSVILLE +   SUNNY     31   9  39 SE7       30.43F WCI  25

$$

INZ033-034-041-042-049-050-058-059-212000-
EAST CENTRAL INDIANA

CITY           SKY/WX    TMP DP  RH WIND       PRES   REMARKS
MUNCIE         SUNNY     30  10  43 VRB7      30.45F WCI  23

$$

INZ060-061-067>069-081>083-085>088-212000-
SOUTHWEST INDIANA

CITY           SKY/WX    TMP DP  RH WIND       PRES   REMARKS
EVANSVILLE     SUNNY     39  16  39 SE9       30.44F
HUNTINGBURG *+ SUNNY     37  16  41 E8        30.45F
WASHINGTON +   SUNNY     36  15  41 SE10      30.44F

$$

INZ062-063-066-070>080-084-089>092-212000-
SOUTH CENTRAL AND SOUTHEAST INDIANA

CITY           SKY/WX    TMP DP  RH WIND       PRES   REMARKS
BLOOMINGTON    SUNNY     35   8  32 E8        30.43F WCI  29
NORTH VERNON + SUNNY     34   7  32 CALM      30.46F

$$



USA.gov is the U.S. government's official web portal to all federal, state and local government web resources and services.